Location: Amarillo
(10.4056°N, 66.5820°W)
Time: 12:23:07
(UTC+00:00)

Daily predictions for brighter satellites

Satellite Brightness Start Highest point End
(mag) Time Altitude Azimuth Time Altitude Azimuth Time Altitude Azimuth
Cosmos 2056 Rocket 3.7 22:20:24 10° S 22:25:32 54° ESE 22:30:43 10° NNE
JB-3 4.1 22:23:28 10° NNE 22:27:15 78° E 22:31:00 10° S
SKYMED 2 4.0 22:23:06 10° N 22:27:23 66° WNW 22:31:41 10° SSW
Cosmos 1812 Rocket 4.5 22:26:45 10° SSW 22:30:56 52° W 22:35:07 10° N
Spelda 4.5 22:27:48 10° WSW 22:35:34 44° S 22:38:09 10° ESE
TRACE 4.5 22:33:53 10° NNE 22:37:24 85° ESE 22:40:57 10° S
Maqsat-H 4.1 22:39:25 10° SW 22:41:53 14° SSW 22:43:54 10° SSE
Intelsat 5-2 Rocket 3.9 22:41:24 10° W 22:43:35 29° SSW 22:46:39 10° SE
SL-4 R/B 1.4 22:45:20 10° SSW 22:48:40 73° SE 22:51:06 17° NE
SL-16 R/B 2.4 22:43:49 10° NNW 22:49:27 77° WSW 22:55:05 10° S
ADEOS 4.2 22:44:54 10° SE 22:49:29 32° ENE 22:54:03 10° NNE
Cosmos 1371 Rocket 4.2 22:44:21 10° SSW 22:49:30 75° WNW 22:54:41 10° N
GPS 2-17 Rocket1 3.1 22:45:14 10° WNW 22:50:00 71° NNE 22:54:05 14° E
Hubble Space Telescope 2.8 22:49:53 10° N 22:51:25 12° NNE 22:52:10 11° NNE
Cosmos 1602 4.4 22:48:27 10° NNW 22:52:05 54° W 22:55:45 10° S
Cosmos 1666 4.4 22:51:30 10° NNW 22:54:43 33° W 22:57:57 10° SSW
BLOCK DM-SL R/B 4.2 22:52:27 10° WSW 22:56:20 32° S 23:00:28 11° ESE
Cosmos 1515 3.4 22:58:31 10° S 23:02:05 74° E 23:05:33 10° N
ARIANE 44LP R/B 3.3 22:56:53 10° WSW 23:02:13 35° S 23:03:44 18° SE
Cosmos 1943 3.9 22:58:32 10° NNE 23:03:23 29° ENE 23:08:13 10° SE
GPS 2-14 Rocket1 3.4 23:00:52 10° W 23:04:12 35° NNW 23:05:38 25° NNE
Cosmos 44 3.7 22:59:37 10° N 23:04:22 40° ENE 23:08:50 10° SE
ARIANE 44L R/B 2.7 23:03:30 10° WSW 23:05:42 46° S 23:09:11 17° ESE
Cosmos 2084 Rocket 3.6 23:03:10 10° NNW 23:06:59 64° WSW 23:10:57 10° SSE
CZ-4B R/B 3.5 23:06:22 10° SE 23:10:23 37° ENE 23:13:14 17° NNE
Radarsat Rocket 3.8 23:05:06 10° SSE 23:11:13 80° ENE 23:17:01 10° N
Cosmos 1023 Rocket 4.5 23:10:24 10° N 23:15:21 53° ENE 23:20:17 10° SSE
Meteor 1-29 4.0 23:13:37 10° SSE 23:14:46 22° SSE 23:14:46 22° SSE
Meteor 2-6 Rocket 4.3 23:11:12 10° S 23:16:53 59° E 23:21:39 15° NNE
Meteor 1-25 Rocket 4.4 23:18:56 10° NNW 23:24:29 71° W 23:29:59 10° S
H-2A ROCKET BODY 3.7 23:26:33 10° SW 23:27:57 13° S 23:29:57 10° SSE
Cosmos 2221 4.2 23:24:41 10° SSW 23:28:30 32° W 23:32:18 10° NNW
Delta 7925 Rocket 4.5 23:27:37 10° W 23:31:48 31° NNW 23:33:01 28° N
Cosmos 2266 Rocket 3.9 23:28:10 10° S 23:34:18 59° E 23:36:47 35° NNE
Cosmos 1553 Rocket 4.1 23:32:19 33° NE 23:34:37 47° E 23:40:28 10° SSE
YAOGAN 1 2.3 23:31:11 10° SSE 23:35:28 80° ENE 23:37:08 37° N
Meteor 2-7 Rocket 4.5 23:33:47 10° S 23:39:15 77° E 23:41:14 41° NNE
Cosmos 1140 Rocket 3.5 23:36:35 10° NNW 23:41:42 78° WSW 23:46:48 10° S
Cosmos 1378 3.7 23:40:29 10° SSW 23:43:16 49° SW 23:43:16 49° SW
Meteor 1-10 Rocket 4.1 23:43:52 10° S 23:49:37 70° E 23:50:08 65° ENE
Stardust Del rocket 4.3 23:42:41 10° WNW 23:49:26 51° N 23:49:26 51° N
Cosmos 1110 Rocket 3.9 23:48:24 10° SSW 23:53:36 82° WNW 23:54:05 72° NNW
